Weather History for Anderson, SC

Change the Weather History Date:

Tuesday, October 9, 2012

  Actual Average Record
Temperature  
Mean Temperature 53 °F -  
Max Temperature 61 °F 74 °F 89 °F (2007)
Min Temperature 46 °F 52 °F 30 °F (2000)
Degree Days  
Heating Degree Days 12    
Growing Degree Days 3 (Base 50)    
Moisture  
Dew Point 46 °F    
Average Humidity 77    
Maximum Humidity 93    
Minimum Humidity 59    
Precipitation  
Precipitation 0.00 in - - ()
Sea Level Pressure  
Sea Level Pressure 30.14 in    
Wind  
Wind Speed 5 mph (ENE)    
Max Wind Speed 8 mph    
Max Gust Speed -    
Visibility 10 miles    
Events      
Averages and records for this station are not official NWS values.
T = Trace of Precipitation, MM = Missing Value Source: NWS Daily Summary

Daily Weather History Graph

Daily Weather History Graph

Search for Another Location

Airport:

Trip Planner

Search our weather history database for the weather conditions in past years. The results will help you decide how hot, cold, wet, or windy it might be!

Date:

Astronomy

Oct. 09, 2012 Rise Set
Actual Time 7:31 AM EDT 7:03 PM EDT
Civil Twilight 7:06 AM EDT 7:28 PM EDT
Nautical Twilight 6:37 AM EDT 7:57 PM EDT
Astronomical Twilight 6:08 AM EDT 8:26 PM EDT
Moon 1:22 AM EDT (10/9) 3:16 PM EDT (10/9)
Length of Visible Light 12h 21m
Length of Day
11h 31m
Last Quarter, 37% of the Moon is Illuminated
Oct 9
Last Quarter
Oct 15
New
Oct 21
First Quarter
Oct 29
Full
Nov 6
Last Quarter

Hourly Weather History & Observations

Time (EDT) Temp. Dew Point Humidity Pressure Visibility Wind Dir Wind Speed Gust Speed Precip Events Conditions
12:31 AM 51.8 °F 46.4 °F 82% 30.16 in 10.0 mi ENE 6.9 mph - N/A   Overcast
12:56 AM 51.1 °F 46.0 °F 83% 30.15 in 10.0 mi ENE 5.8 mph - N/A   Overcast
1:56 AM 51.1 °F 46.0 °F 83% 30.15 in 10.0 mi NE 3.5 mph - N/A   Overcast
2:26 AM 51.8 °F 44.6 °F 76% 30.15 in 10.0 mi NE 5.8 mph - N/A   Overcast
2:56 AM 51.1 °F 46.0 °F 83% 30.15 in 10.0 mi NE 3.5 mph - N/A   Overcast
3:56 AM 50.0 °F 45.0 °F 83% 30.14 in 10.0 mi NE 5.8 mph - N/A   Overcast
4:13 AM 50.0 °F 46.4 °F 87% 30.14 in 10.0 mi NE 4.6 mph - N/A   Overcast
4:56 AM 50.0 °F 46.0 °F 86% 30.13 in 10.0 mi NE 4.6 mph - N/A   Overcast
5:56 AM 50.0 °F 46.0 °F 86% 30.13 in 10.0 mi East 3.5 mph - N/A   Overcast
6:56 AM 51.1 °F 46.0 °F 83% 30.16 in 10.0 mi Calm Calm - N/A   Overcast
7:56 AM 51.1 °F 46.9 °F 86% 30.17 in 10.0 mi Calm Calm - N/A   Overcast
8:56 AM 51.1 °F 46.9 °F 86% 30.19 in 10.0 mi SSE 4.6 mph - N/A   Overcast
9:56 AM 51.1 °F 46.9 °F 86% 30.19 in 10.0 mi ENE 8.1 mph - N/A   Overcast
10:56 AM 52.0 °F 46.0 °F 80% 30.19 in 10.0 mi ENE 4.6 mph - N/A   Overcast
11:56 AM 55.0 °F 46.0 °F 72% 30.17 in 10.0 mi NE 5.8 mph - N/A   Overcast
12:56 PM 55.0 °F 46.0 °F 72% 30.16 in 10.0 mi ENE 4.6 mph - N/A   Overcast
1:56 PM 55.9 °F 46.0 °F 69% 30.14 in 10.0 mi East 5.8 mph - N/A   Overcast
2:56 PM 57.0 °F 46.0 °F 67% 30.13 in 10.0 mi Calm Calm - N/A   Overcast
3:38 PM 60.8 °F 48.2 °F 63% 30.12 in 10.0 mi ENE 5.8 mph - N/A   Mostly Cloudy
3:56 PM 59.0 °F 46.9 °F 64% 30.11 in 10.0 mi Variable 3.5 mph - N/A   Scattered Clouds
4:30 PM 60.8 °F 46.4 °F 59% 30.11 in 10.0 mi North 3.5 mph - N/A   Mostly Cloudy
4:43 PM 60.8 °F 46.4 °F 59% 30.11 in 10.0 mi Variable 5.8 mph - N/A   Scattered Clouds
4:53 PM 60.8 °F 46.4 °F 59% 30.10 in 10.0 mi NNE 5.8 mph - N/A   Mostly Cloudy
4:56 PM 59.0 °F 46.0 °F 62% 30.10 in 10.0 mi Variable 4.6 mph - N/A   Mostly Cloudy
5:04 PM 59.0 °F 46.4 °F 63% 30.10 in 10.0 mi ENE 3.5 mph - N/A   Scattered Clouds
5:56 PM 57.9 °F 46.0 °F 65% 30.10 in 10.0 mi NNE 5.8 mph - N/A   Partly Cloudy
6:56 PM 54.0 °F 46.9 °F 77% 30.10 in 10.0 mi East 4.6 mph - N/A   Clear
7:56 PM 50.0 °F 46.9 °F 89% 30.10 in 10.0 mi East 3.5 mph - N/A   Clear
8:56 PM 50.0 °F 46.9 °F 89% 30.11 in 10.0 mi Calm Calm - N/A   Clear
9:56 PM 48.9 °F 46.0 °F 90% 30.12 in 10.0 mi Calm Calm - N/A   Clear
10:56 PM 46.9 °F 45.0 °F 93% 30.13 in 10.0 mi Calm Calm - N/A   Clear
11:56 PM 46.0 °F 44.1 °F 93% 30.13 in 10.0 mi Calm Calm - N/A   Clear